Innsbruck, Austria

2:35 PM CEST on September 29, 2016 (GMT +0200)
Innsbruck

Weather History for LOWI - January, 2013

Change the Weather History Date:

Wednesday, January 2, 2013

  Actual Average Record
Temperature  
Mean Temperature 34 °F -  
Max Temperature 38 °F 36 °F 55 °F (1998)
Min Temperature 30 °F 22 °F 10 °F (2002)
Degree Days  
Heating Degree Days 31    
Moisture  
Dew Point 31 °F    
Average Humidity 90    
Maximum Humidity 100    
Minimum Humidity 78    
Precipitation  
Precipitation 0.02 in - - ()
Sea Level Pressure  
Sea Level Pressure 30.24 in    
Wind  
Wind Speed 2 mph ()    
Max Wind Speed 9 mph    
Max Gust Speed -    
Visibility 5.7 miles    
Events Snow    
Averages and records for this station are not official NWS values.
T = Trace of Precipitation, MM = Missing Value Source: Averaged Metar Reports

Daily Weather History Graph

Daily Weather History Graph

Search for Another Location

Airport or City:

Trip Planner

Search our weather history database for the weather conditions in past years. The results will help you decide how hot, cold, wet, or windy it might be!

Date:

Astronomy

Jan. 02, 2013 Rise Set
Actual Time 8:01 AM CET 4:36 PM CET
Civil Twilight 7:26 AM CET 5:11 PM CET
Nautical Twilight 6:47 AM CET 5:50 PM CET
Astronomical Twilight 6:10 AM CET 6:27 PM CET
Moon 10:14 PM CET (1/2) 10:13 AM CET (1/2)
Length of Visible Light 9h 45m
Length of Day
8h 34m
Waning Gibbous, 77% of the Moon is Illuminated
Jan 2
Waning Gibbous
Jan 5
Last Quarter
Jan 11
New
Jan 19
First Quarter
Jan 27
Full

Hourly Weather History & Observations

Time (CET) Temp. Windchill Dew Point Humidity Pressure Visibility Wind Dir Wind Speed Gust Speed Precip Events Conditions
12:20 AM 32.0 °F - 28.4 °F 87% 29.98 in 6.2 mi Variable 1.2 mph - N/A   Overcast
12:50 AM 32.0 °F - 28.4 °F 87% 29.98 in 6.2 mi Calm Calm - N/A   Overcast
1:00 AM 32 °F - 29 °F 83% 30.06 in 8 mi Calm Calm - -  
1:20 AM 32.0 °F - 28.4 °F 87% 29.98 in 6.2 mi WSW 2.3 mph - N/A   Overcast
1:50 AM 32.0 °F - 28.4 °F 87% 29.98 in 6.2 mi Variable 2.3 mph - N/A   Overcast
2:20 AM 32.0 °F - 28.4 °F 87% 29.98 in 6.2 mi Variable 2.3 mph - N/A   Overcast
2:50 AM 32.0 °F - 28.4 °F 87% 30.01 in 6.2 mi Variable 2.3 mph - N/A   Overcast
3:20 AM 32.0 °F 28.7 °F 28.4 °F 87% 30.01 in 6.2 mi West 3.5 mph - N/A   Overcast
3:50 AM 32.0 °F 27.5 °F 30.2 °F 93% 30.04 in 6.2 mi WSW 4.6 mph - N/A   Mostly Cloudy
4:00 AM 33 °F - 29 °F 82% 30.12 in 9 mi WSW 4.5 mph - -   Overcast
4:20 AM 32.0 °F - 28.4 °F 87% 30.04 in 6.2 mi Calm Calm - N/A   Mostly Cloudy
4:50 AM 33.8 °F - 28.4 °F 81% 30.06 in 6.2 mi East 2.3 mph - N/A   Mostly Cloudy
5:20 AM 33.8 °F 30.8 °F 30.2 °F 87% 30.06 in 6.2 mi East 3.5 mph - N/A   Mostly Cloudy
5:50 AM 33.8 °F 30.8 °F 30.2 °F 87% 30.06 in 5.6 mi SE 3.5 mph - N/A Snow Light Snow
6:20 AM 33.8 °F - 30.2 °F 87% 30.09 in 4.3 mi Variable 1.2 mph - N/A Snow Light Snow
6:50 AM 32.0 °F - 30.2 °F 93% 30.09 in 3.7 mi Variable 1.2 mph - N/A Snow Light Snow
7:00 AM 33 °F - 31 °F 87% 30.20 in 4 mi 2.2 mph - - Snow Light Snow
7:20 AM 32.0 °F - 30.2 °F 93% 30.12 in 3.7 mi Variable 1.2 mph - N/A Snow Light Snow
7:50 AM 32.0 °F - 32.0 °F 100% 30.15 in 3.7 mi Calm Calm - N/A Snow Light Snow
8:20 AM 32.0 °F - 32.0 °F 100% 30.15 in 3.1 mi Variable 1.2 mph - N/A Snow Light Snow
8:50 AM 32.0 °F - 32.0 °F 100% 30.18 in 2.5 mi Variable 1.2 mph - N/A Snow Light Snow
9:20 AM 32.0 °F - 32.0 °F 100% 30.18 in 2.5 mi Variable 1.2 mph - N/A Snow Light Snow
9:50 AM 33.8 °F - 32.0 °F 93% 30.21 in 3.1 mi Calm Calm - N/A Snow Light Snow
10:00 AM 33 °F - 32 °F 94% 30.31 in 3 mi Calm Calm - - Snow Light Snow
10:20 AM 33.8 °F - 32.0 °F 93% 30.24 in 3.1 mi Variable 1.2 mph - N/A Snow Light Snow
10:50 AM 33.8 °F - 32.0 °F 93% 30.24 in 3.1 mi Variable 1.2 mph - N/A   Mostly Cloudy
11:20 AM 33.8 °F - 32.0 °F 93% 30.24 in 3.1 mi Variable 2.3 mph - N/A   Mostly Cloudy
11:50 AM 35.6 °F - 33.8 °F 93% 30.24 in 5.0 mi Variable 2.3 mph - N/A   Mostly Cloudy
12:20 PM 35.6 °F 32.8 °F 33.8 °F 93% 30.24 in 5.6 mi ESE 3.5 mph - N/A   Mostly Cloudy
12:50 PM 37.4 °F 31.4 °F 33.8 °F 87% 30.24 in 6.2 mi ENE 8.1 mph - N/A   Mostly Cloudy
1:00 PM 38 °F - 34 °F 78% 30.32 in 9 mi ENE 8.9 mph - -   Partly Cloudy
1:20 PM 37.4 °F 32.1 °F 32.0 °F 81% 30.24 in 6.2 mi East 6.9 mph - N/A   Scattered Clouds
1:50 PM 37.4 °F 32.1 °F 32.0 °F 81% 30.27 in 6.2 mi SE 6.9 mph - N/A   Partly Cloudy
2:20 PM 37.4 °F 32.1 °F 32.0 °F 81% 30.27 in 6.2 mi ESE 6.9 mph - N/A   Partly Cloudy
2:50 PM 37.4 °F 32.8 °F 32.0 °F 81% 30.27 in 6.2 mi ESE 5.8 mph - N/A   Partly Cloudy
3:20 PM 37.4 °F - 32.0 °F 81% 30.30 in 6.2 mi Variable 2.3 mph - N/A   Partly Cloudy
3:50 PM 37.4 °F - 32.0 °F 81% 30.30 in 6.2 mi South 2.3 mph - N/A   Scattered Clouds
4:00 PM 37 °F - 33 °F 79% 30.38 in 25 mi South 2.2 mph - -   Scattered Clouds
4:20 PM 35.6 °F - 32.0 °F 87% 30.30 in 6.2 mi Variable 2.3 mph - N/A   Scattered Clouds
4:50 PM 35.6 °F - 32.0 °F 87% 30.33 in 6.2 mi Variable 1.2 mph - N/A   Mostly Cloudy
5:20 PM 33.8 °F 30.8 °F 32.0 °F 93% 30.36 in 6.2 mi West 3.5 mph - N/A   Mostly Cloudy
5:50 PM 33.8 °F 30.8 °F 32.0 °F 93% 30.36 in 6.2 mi WSW 3.5 mph - N/A   Mostly Cloudy
6:20 PM 33.8 °F 29.6 °F 32.0 °F 93% 30.36 in 6.2 mi WSW 4.6 mph - N/A   Mostly Cloudy
6:50 PM 33.8 °F 29.6 °F 32.0 °F 93% 30.39 in 6.2 mi West 4.6 mph - N/A   Mostly Cloudy
7:00 PM 33 °F - 31 °F 91% 30.49 in 9 mi West 4.5 mph - -   Scattered Clouds
7:20 PM 33.8 °F 30.8 °F 32.0 °F 93% 30.42 in 6.2 mi West 3.5 mph - N/A   Mostly Cloudy
7:50 PM 33.8 °F 30.8 °F 32.0 °F 93% 30.42 in 6.2 mi West 3.5 mph - N/A   Mostly Cloudy
8:20 PM 32.0 °F 28.7 °F 30.2 °F 93% 30.42 in 6.2 mi West 3.5 mph - N/A   Scattered Clouds
8:50 PM 32.0 °F - 30.2 °F 93% 30.45 in 6.2 mi West 2.3 mph - N/A   Scattered Clouds
9:20 PM 32.0 °F - 30.2 °F 93% 30.45 in 6.2 mi SW 2.3 mph - N/A   Scattered Clouds
9:50 PM 30.2 °F 26.7 °F 30.2 °F 100% 30.45 in 6.2 mi West 3.5 mph - N/A   Scattered Clouds
10:00 PM 31 °F - 30 °F 94% 30.56 in 9 mi West 4.5 mph - -   Partly Cloudy
10:20 PM 30.2 °F 26.7 °F 30.2 °F 100% 30.45 in 6.2 mi WSW 3.5 mph - N/A   Scattered Clouds
10:50 PM 30.2 °F 24.3 °F 28.4 °F 93% 30.48 in 6.2 mi WSW 5.8 mph - N/A   Scattered Clouds
11:20 PM 30.2 °F - 28.4 °F 93% 30.48 in 6.2 mi Variable 1.2 mph - N/A   Mostly Cloudy
11:50 PM 30.2 °F - 28.4 °F 93% 30.48 in 5.0 mi Variable 1.2 mph - N/A   Scattered Clouds